Tracking 18844 objects as of 21-Nov-2017
HD Live streaming from Space Station
objects crossing your sky now

FENGYUN 1C DEB

Track FENGYUN 1C DEB now!
10-day predictions


NORAD ID: 37044
Int'l Code: 1999-025EEC
Perigee: 643.1 km
Apogee: 1,532.3 km
Inclination: 98.9 °
Period: 106.8 minutes
Semi major axis: 7458 km
RCS: 0.0003 m2 (small)
Launch date: May 10, 1999
Source: People's Republic of China (PRC)
Launch site: Taiyaun Space Center, China (TSC)

Note: This is SATELLITE DEBRIS
aabbcc
Your satellite tracking list
Your tracking list is empty




NASA's NSSDC Master Catalog

Two Line Element Set (TLE):
1 37044U 99025EEC 17324.78853345  .00000063  00000-0  55868-4 0  9998
2 37044  98.9322 298.3826 0596063 177.6393 182.7789 13.47746037443168
Source of the keplerian elements: AFSPC